FW6326 Weather Reports


Display with metric or nautical units.
time (UTC)temp
F
wind
direction
speed
MPH
gust
MPH
rain 1hr
in
rain 24hr
in
rain mn
in
humidity
%
barometer
mb
20260508133055 50 0 0.0 0.0 0.00 1.18 0.00 91 1002.1
20260508131603 51 114 1.0 3.0 0.00 1.18 0.00 92 1002.0
20260508130056 51 0 0.0 3.0 0.00 1.18 0.00 93 1001.8
20260508124605 51 335 0.0 5.0 0.00 1.18 0.00 93 1001.8
20260508123055 50 4 2.0 7.0 0.00 1.18 0.00 94 1001.9
20260508121604 49 316 3.0 10.0 0.00 1.18 0.00 95 1002.2
20260508120059 48 0 3.0 8.0 0.00 1.18 0.00 95 1002.2
20260508114553 48 27 0.0 6.0 0.00 1.18 0.00 95 1002.0
20260508113057 47 0 0.0 4.0 0.00 1.18 0.00 95 1002.4
20260508111600 47 62 0.0 3.0 0.00 1.18 0.00 95 1002.5
20260508110100 47 342 0.0 2.0 0.00 1.18 0.00 95 1002.2
20260508104555 46 0 0.0 0.0 0.00 1.22 0.00 95 1001.9
20260508103121 44 0 0.0 0.0 0.00 1.22 0.00 95 1001.9
20260508101614 43 0 0.0 0.0 0.00 1.22 0.00 95 1001.8
20260508100054 42 0 0.0 0.0 0.00 1.22 0.00 95 1001.8
20260508094607 40 0 0.0 0.0 0.00 1.22 0.00 95 1001.9
20260508093053 40 0 0.0 0.0 0.00 1.22 0.00 94 1002.0
20260508091556 40 0 0.0 0.0 0.00 1.22 0.00 94 1001.7
20260508090107 41 0 0.0 0.0 0.00 1.22 0.00 95 1001.5
20260508084552 41 0 0.0 0.0 0.00 1.22 0.00 94 1001.7
20260508083112 41 0 0.0 0.0 0.00 1.22 0.00 94 1001.9
20260508081555 43 0 0.0 0.0 0.00 1.22 0.00 95 1001.7
20260508080054 43 287 1.0 3.0 0.00 1.22 0.00 95 1001.8
20260508074555 43 0 0.0 0.0 0.00 1.22 0.00 95 1001.8
20260508073052 44 310 0.0 2.0 0.00 1.22 0.00 95 1001.6
20260508071554 44 309 0.0 3.0 0.00 1.22 0.00 95 1001.2
20260508070055 44 325 0.0 3.0 0.00 1.22 0.00 95 1001.4
20260508064557 44 0 0.0 2.0 0.00 1.22 0.00 95 1001.5
20260508063056 44 0 0.0 3.0 0.00 1.22 0.00 95 1001.4
20260508061559 45 0 0.0 3.0 0.00 1.22 0.00 95 1001.4
20260508060057 45 0 0.0 4.0 0.00 1.22 0.00 95 1001.5
20260508054601 45 321 1.0 4.0 0.00 1.22 0.00 95 1001.6
20260508053055 45 310 2.0 4.0 0.00 1.22 0.00 95 1001.8
20260508051555 45 0 0.0 2.0 0.00 1.22 0.00 95 1001.6
20260508050057 45 318 1.0 5.0 0.00 1.22 0.00 95 1001.7
20260508044552 44 0 0.0 3.0 0.00 1.22 0.00 95 1002.0
20260508043101 44 0 0.0 0.0 0.00 1.22 0.00 95 1001.8
20260508041558 44 0 0.0 0.0 0.00 1.22 0.00 95 1001.6
20260508040052 44 0 0.0 0.0 0.00 1.22 0.00 95 1001.6
20260508034558 44 0 0.0 0.0 0.00 1.22 0.00 95 1001.9
20260508033055 44 0 0.0 0.0 0.00 1.22 0.00 95 1002.1
20260508031557 44 0 0.0 0.0 0.00 1.22 0.00 95 1002.2
20260508030058 44 0 0.0 0.0 0.00 1.22 0.00 95 1002.2
20260508024555 45 0 0.0 0.0 0.00 1.22 1.22 95 1001.9
20260508023053 45 0 0.0 0.0 0.00 1.22 1.22 95 1002.1
20260508021556 44 0 0.0 2.0 0.00 1.22 1.22 95 1002.2
20260508020057 45 170 2.0 3.0 0.00 1.22 1.22 95 1002.4
20260508014558 44 0 0.0 4.0 0.00 1.22 1.22 95 1002.3
20260508013055 44 0 0.0 0.0 0.00 1.22 1.22 95 1002.5
20260508011555 44 0 0.0 3.0 0.00 1.22 1.22 95 1002.4
20260508010056 44 226 0.0 2.0 0.00 1.22 1.22 95 1002.3
20260508004601 44 208 3.0 5.0 0.00 1.22 1.22 94 1002.3
20260508003107 44 190 2.0 4.0 0.00 1.22 1.22 95 1002.3
20260508001558 45 220 1.0 6.0 0.00 1.22 1.22 95 1002.0
20260508000100 46 198 3.0 4.0 0.00 1.22 1.22 95 1002.3
20260507234558 46 0 0.0 0.0 0.00 1.22 1.22 95 1001.7
20260507233052 46 0 0.0 0.0 0.00 1.22 1.22 95 1001.6
20260507231552 46 0 0.0 1.0 0.00 1.22 1.22 95 1001.7
20260507230055 46 0 0.0 4.0 0.00 1.22 1.22 95 1002.0
20260507224611 46 232 2.0 7.0 0.00 1.22 1.22 95 1002.1
20260507223059 46 225 2.0 8.0 0.00 1.22 1.22 95 1002.2
20260507221553 46 231 4.0 8.0 0.00 1.22 1.22 95 1002.4
20260507220054 46 227 3.0 12.0 0.00 1.22 1.22 95 1002.3
20260507214603 46 215 4.0 16.0 0.00 1.22 1.22 95 1002.6
20260507213054 46 223 10.0 14.0 0.00 1.22 1.22 95 1002.6
20260507211620 46 227 9.0 16.0 0.00 1.22 1.22 95 1002.5
20260507210056 47 229 11.0 16.0 0.00 1.22 1.22 95 1002.6
20260507204601 47 238 14.0 24.0 0.00 1.22 1.22 95 1002.7
20260507203054 48 228 12.0 19.0 0.01 1.22 1.22 95 1002.9
20260507201610 47 194 8.0 13.0 0.02 1.22 1.22 95 1002.9
20260507194558 47 116 2.0 7.0 0.08 1.22 1.22 94 1001.8
20260507193107 48 138 3.0 13.0 0.11 1.20 1.20 94 1001.9
20260507191558 48 208 7.0 12.0 0.20 1.19 1.19 95 1003.2
20260507190057 48 141 4.0 11.0 0.24 1.17 1.17 94 1003.0
20260507184555 48 170 4.0 9.0 0.31 1.13 1.13 94 1003.7
20260507183100 49 208 4.0 8.0 0.37 1.08 1.08 95 1004.3
20260507181556 48 233 6.0 12.0 0.42 0.99 0.99 95 1004.6
20260507180058 48 227 6.0 12.0 0.71 0.92 0.92 94 1004.5
20260507174556 48 245 5.0 9.0 0.74 0.81 0.81 95 1004.8
20260507173103 48 239 6.0 12.0 0.63 0.70 0.70 94 1005.1
20260507171557 47 213 8.0 17.0 0.49 0.55 0.55 95 1005.6
20260507170056 46 213 13.0 21.0 0.14 0.21 0.21 95 1005.3
20260507164556 46 175 16.0 23.0 0.01 0.07 0.07 95 1004.4
20260507163053 47 152 16.0 27.0 0.00 0.07 0.07 95 1004.4
20260507161601 46 175 15.0 24.0 0.00 0.06 0.06 95 1005.0
20260507160053 47 183 14.0 25.0 0.00 0.06 0.06 95 1005.3
20260507154555 47 170 15.0 23.0 0.00 0.06 0.06 95 1005.8
20260507153100 47 179 16.0 25.0 0.00 0.06 0.06 95 1006.1
20260507151552 47 175 14.0 23.0 0.00 0.05 0.05 95 1006.8
20260507150056 47 175 14.0 18.0 0.00 0.05 0.05 95 1007.2
20260507144555 46 170 12.0 20.0 0.00 0.05 0.05 95 1007.6
20260507143055 46 175 12.0 18.0 0.00 0.05 0.05 95 1008.0
20260507141559 46 175 13.0 24.0 0.00 0.05 0.05 95 1008.2
20260507140109 46 162 12.0 18.0 0.00 0.05 0.05 95 1008.7
20260507134554 46 175 10.0 18.0 0.00 0.05 0.05 95 1008.8